Location: Newark
(45.8944°N, 12.5886°E)
Time: 18:22:48
(UTC+00:00)

X-37B - Visible Passes

Search period start: 07 March 2021 00:00
Search period end: 17 March 2021 00:00
Orbit: 383 x 391 km, 45.0° (Epoch: 27 February)

Date Brightness Start Highest point End Pass type
(mag) Time Alt. Az. Time Alt. Az. Time Alt. Az.
10 Mar 3.1 18:40:52 10° S 18:41:13 11° S 18:41:13 11° S visible
11 Mar 3.2 19:17:40 10° SW 19:18:23 15° SW 19:18:23 15° SW visible
12 Mar 2.0 18:19:47 10° SSW 18:22:24 23° SSE 18:23:05 21° SE visible
13 Mar 1.2 18:57:17 10° WSW 18:59:58 45° SSW 18:59:58 45° SSW visible
14 Mar 1.5 17:59:10 10° SW 18:02:08 34° SSE 18:04:28 14° E visible
14 Mar 2.9 19:35:23 10° W 19:36:45 23° WSW 19:36:45 23° WSW visible
15 Mar 0.6 18:37:03 10° WSW 18:40:14 65° S 18:41:10 40° ESE visible
16 Mar 1.3 19:15:15 10° W 19:17:49 53° WSW 19:17:49 53° WSW visible
